This is the latest recevied weather packets stored in our database for station/object WA6OOO. If no packets are shown the sender has not sent any weather packets the latest 10 day(s).
| Time | Temp. | Humidity | Pressure | Rain* | Wind** | Luminosity | Snow |
|---|---|---|---|---|---|---|---|
| 1777418649 | 18.89° C | 58% | 1019.3 hPa | 0 mm | - | 438 W/m² | - |
| 1777418346 | 18.89° C | 62% | 1019.5 hPa | 0 mm | - | 455 W/m² | - |
| 1777418041 | 18.89° C | 60% | 1019.4 hPa | 0 mm | - | 470 W/m² | - |
| 1777417737 | 18.89° C | 61% | 1019.6 hPa | 0 mm | - | 486 W/m² | - |
| 1777417433 | 18.33° C | 61% | 1019.5 hPa | 0 mm | - | 500 W/m² | - |
| 1777417130 | 18.33° C | 62% | 1019.4 hPa | 0 mm | - | 516 W/m² | - |
| 1777416826 | 18.33° C | 62% | 1019.6 hPa | 0 mm | - | 531 W/m² | - |
| 1777416521 | 18.33° C | 62% | 1019.7 hPa | 0 mm | - | 547 W/m² | - |
| 1777416218 | 18.89° C | 64% | 1019.7 hPa | 0 mm | - | 561 W/m² | - |
| 1777415917 | 18.33° C | 64% | 1019.6 hPa | 0 mm | - | 575 W/m² | - |
| 1777415613 | 18.33° C | 64% | 1019.8 hPa | 0 mm | - | 589 W/m² | - |
| 1777415309 | 18.89° C | 62% | 1019.8 hPa | 0 mm | - | 602 W/m² | - |
| 1777415004 | 18.89° C | 61% | 1019.8 hPa | 0 mm | - | 616 W/m² | - |
| 1777414698 | 18.89° C | 59% | 1019.7 hPa | 0 mm | - | 628 W/m² | - |
| 1777414394 | 18.89° C | 61% | 1019.8 hPa | 0 mm | - | 639 W/m² | - |
| 1777414093 | 18.89° C | 59% | 1019.8 hPa | 0 mm | - | 652 W/m² | - |
| 1777413789 | 18.89° C | 58% | 1020 hPa | 0 mm | - | 662 W/m² | - |
| 1777413489 | 18.89° C | 57% | 1020 hPa | 0 mm | - | 673 W/m² | - |
| 1777413186 | 19.44° C | 57% | 1019.9 hPa | 0 mm | - | 684 W/m² | - |
| 1777412880 | 18.89° C | 56% | 1020 hPa | 0 mm | - | 693 W/m² | - |
| 1777412575 | 20° C | 55% | 1020.1 hPa | 0 mm | - | 701 W/m² | - |
| 1777412272 | 19.44° C | 54% | 1020.2 hPa | 0 mm | - | 709 W/m² | - |
| 1777411968 | 19.44° C | 54% | 1020.2 hPa | 0 mm | - | 717 W/m² | - |
| 1777411667 | 19.44° C | 52% | 1020.2 hPa | 0 mm | - | 726 W/m² | - |
| 1777411362 | 19.44° C | 53% | 1020 hPa | 0 mm | - | 733 W/m² | - |
* Rain latest hour (hover to see other rain measurements)
** Current wind speed in m/s (hover to see current wind gust speed)